Location: Haram ta Haram Freeway
(35.0583°N, 51.4202°E)
Time: 17:11:13
(UTC+03:30)

IRIDIUM 33 DEB - Pass Details

Date: 05 December 2021
Orbit: 663 x 816 km, 86.4° (Epoch: 18 January)

Event Time Altitude Azimuth Distance (km) Brightness Sun altitude
Rises 19:35:59 0° 211° (SSW) 3,340 ? -32.8°
Reaches altitude 10° 19:38:46 10° 224° (SW) 2,406 ? -33.4°
Maximum altitude 19:43:13 26° 279° (W) 1,560 ? -34.3°
Drops below altitude 10° 19:47:36 10° 334° (NNW) 2,368 ? -35.2°
Enters shadow 19:48:26 - 339° (NNW) 2,628 ? -35.3°
